TimeCST,TemperatureF,Dew PointF,Humidity,Sea Level PressureIn,VisibilityMPH,Wind Direction,Wind SpeedMPH,Gust SpeedMPH,PrecipitationIn,Events,Conditions,WindDirDegrees,DateUTC
12:52 AM,70.0,66.9,90,29.75,6.0,NE,11.5,-,N/A,,Mostly Cloudy,40,2013-12-22 06:52:00
1:15 AM,69.8,66.2,88,29.76,6.0,NE,10.4,-,N/A,,Mostly Cloudy,40,2013-12-22 07:15:00
1:25 AM,69.8,66.2,88,29.76,6.0,NNE,9.2,-,N/A,,Overcast,30,2013-12-22 07:25:00
1:52 AM,69.1,66.0,90,29.76,6.0,North,11.5,-,N/A,,Overcast,10,2013-12-22 07:52:00
2:52 AM,68.0,64.9,90,29.75,8.0,NE,9.2,-,N/A,,Mostly Cloudy,40,2013-12-22 08:52:00
3:52 AM,70.0,66.9,90,29.77,7.0,NE,8.1,-,N/A,,Overcast,40,2013-12-22 09:52:00
4:39 AM,71.6,66.2,83,29.79,10.0,NNE,8.1,-,N/A,,Overcast,20,2013-12-22 10:39:00
4:52 AM,70.0,66.0,87,29.79,10.0,NNE,9.2,-,N/A,,Overcast,30,2013-12-22 10:52:00
5:50 AM,69.8,62.6,78,29.81,10.0,NNE,10.4,-,N/A,,Overcast,30,2013-12-22 11:50:00
5:52 AM,70.0,62.1,76,29.81,10.0,NNE,10.4,-,N/A,,Overcast,30,2013-12-22 11:52:00
6:45 AM,69.8,60.8,73,29.85,10.0,North,9.2,-,N/A,,Overcast,10,2013-12-22 12:45:00
6:52 AM,70.0,60.1,71,29.86,10.0,NNE,10.4,-,N/A,,Overcast,20,2013-12-22 12:52:00
7:52 AM,69.1,54.0,58,29.89,10.0,NNE,13.8,-,N/A,,Scattered Clouds,20,2013-12-22 13:52:00
8:52 AM,71.1,53.1,53,29.94,10.0,North,15.0,-,N/A,,Overcast,10,2013-12-22 14:52:00
9:52 AM,73.0,51.1,46,29.99,10.0,NNE,18.4,24.2,N/A,,Overcast,20,2013-12-22 15:52:00
10:52 AM,75.9,45.0,33,30.00,10.0,NNE,23.0,31.1,N/A,,Partly Cloudy,30,2013-12-22 16:52:00
11:52 AM,78.1,43.0,29,30.01,10.0,NNE,25.3,32.2,N/A,,Overcast,30,2013-12-22 17:52:00
12:52 PM,75.0,42.1,31,30.01,10.0,NNE,21.9,28.8,N/A,,Overcast,30,2013-12-22 18:52:00
1:52 PM,73.9,39.9,29,29.99,10.0,NE,18.4,-,N/A,,Mostly Cloudy,40,2013-12-22 19:52:00
2:52 PM,77.0,45.0,32,29.99,10.0,NE,18.4,-,N/A,,Clear,40,2013-12-22 20:52:00
3:52 PM,73.9,41.0,30,30.01,10.0,NE,16.1,26.5,N/A,,Clear,40,2013-12-22 21:52:00
4:52 PM,70.0,42.1,36,30.03,10.0,NE,15.0,-,N/A,,Clear,40,2013-12-22 22:52:00
5:52 PM,64.9,45.0,48,30.06,10.0,NE,15.0,-,N/A,,Clear,50,2013-12-22 23:52:00
6:52 PM,63.0,46.9,56,30.09,10.0,NE,13.8,-,N/A,,Clear,50,2013-12-23 00:52:00
7:52 PM,63.0,50.0,63,30.14,10.0,NE,17.3,24.2,N/A,,Clear,50,2013-12-23 01:52:00
8:52 PM,62.1,48.0,60,30.19,10.0,NNE,17.3,-,N/A,,Clear,30,2013-12-23 02:52:00
9:52 PM,60.1,48.0,64,30.23,10.0,NNE,17.3,-,N/A,,Clear,30,2013-12-23 03:52:00
10:52 PM,57.9,48.0,70,30.26,10.0,NNE,16.1,-,N/A,,Clear,20,2013-12-23 04:52:00
11:52 PM,55.0,46.0,72,30.28,10.0,NNE,19.6,25.3,N/A,,Clear,20,2013-12-23 05:52:00